Weather in Sillamjae

Estonia     59˚23′46″N   27˚45′43″E
temp.,
°C
wind,
m/s
gust,
m/s
humid.,
%
clouds,
%
prec.,
mm/h
press.,
hPa
HPBL,
m
3 december, thu
thu323:00−1˚sse788499 0.0 1028649
02:00−1˚sse788199 0.0 1027662
05:00−1˚sse788698 0.0 1025548
08:00−1˚sse778497 0.1 1024704
11:00−1˚sse7878100 0.0 1024772
14:00−1˚sse8980100 0.1 1023863
17:00−1˚sse91081100 0.0 1022810
20:00−1˚sse91083100 0.1 1022807
4 december, fri
fri423:00−1˚sse91182100 0.1 1021914
02:00sse91181100 0.1 1021859
05:00sse91183100 0.1 1020935
08:00sse101381100 0.1 1020860
11:00+1˚sse101382100 0.0 1019896
14:00+3˚sse101482100 0.1 1019890
17:00+3˚sse101482100 0.1 10191004
20:00+4˚sse101482100 0.2 10191046
5 december, sat
sat523:00+4˚sse101582100 0.1 10191065
02:00+4˚sse101481100 0.1 10201048
05:00+4˚sse101483100 0.1 10191038
08:00+5˚sse91486100 0.1 1020816
11:00+5˚sse101585100 0.0 1020818
14:00+5˚sse9148499 0.0 1021822
17:00+5˚sse101586100 0.0 1022696
20:00+5˚sse9158694 0.0 1023718
6 december, sun
sun623:00+5˚sse9138689 0.0 1024768
02:00+5˚sse8138594 0.1 1025697
05:00+5˚sse81284100 0.1 1025670
08:00+5˚sse91383100 0.3 1026721
11:00+4˚sse8128293 0.0 1027750
14:00+5˚sse8128197 0.0 1027833
17:00+3˚sse8128582 0.0 1028628
20:00+2˚sse8128475 0.0 1029552
7 december, mon
mon723:00+2˚sse9137370 0.0 1030512
02:00+1˚sse10146481 0.0 1030463
05:00+1˚sse9136320 0.0 1030430
08:00+1˚sse9126310 0.0 1030427
11:00+1˚sse912600 0.0 1030452
14:00+1˚sse912560 0.0 1029512
17:00+1˚sse914570 0.0 1029466
20:00sse914560 0.0 1028462